CZ-4C DEB, 43265

Orbit data source: Space-Track

CZ-4C DEB, 43265 is space debris in SSO originally from a launch on Sat, 31 Mar 2018 UTC launched from the Taiyaun Space Center, China (TSC). Debris objects in space refer to the collection of defunct objects orbiting the Earth. Examples of debris include non-operational satellites, rocket bodies, and fragments generated from explosions, collisions, or faulty payload assembly.

Loading next visibility...
Identifier
43265, 2018-031G
Orbit
SSO
Country
Flag of CNCN / PRC
Related business
Manufacturer
Unknown
Mission
Spacecraft
Bus & Motor
Unknown
Mass
Unknown
Launch date (UTC)
2018-03-31 (8 years ago)
Launch vehicle
Unknown
Launch site
Taiyaun Space Center, China (TSC)
Object type
Payload
Rocket body
Debris
Shape & HBR
Unknown shape, 2.1 m
Radar Cross Section
Large (>1 m²)

Expand to show TLE details & history
Last TLE update: 5 hours ago

TLE from 5 hours ago
0 CZ-4C DEB
1 43265U 18031G   26035.15287851  .00011185  00000-0  86881-3 0  9996
2 43265  97.7817 118.6879 0007246   1.7183 358.4064 15.01476346424467
Epoch: 2026-02-04T03:40Z
TLE epoch observation values (Epoch: 2026-02-04T03:40:08.703Z)
Latitude
-0.00007°
Longitude
-70.67191°
Altitude
560.369 km
Speed
7.584 km/s
True Right ascension
07h 54m 45s
True Declination
0° 00' 00"
Sunlit
Object was in full shadow at epoch
Visualization orbit readout
Latitude
Unknown
Longitude
Unknown
Altitude
Unknown
Speed
Unknown
Apparent Right ascension
Unknown
Apparent Declination
Unknown
Sunlit
N/A
Visualization observer readout
Local Sidereal Time
10:08:07
Azimuth
Unknown
Elevation
Unknown
Doppler factor
Unknown
Orbital elements
Apogee altitude
564.377 km
Perigee altitude
554.323 km
Semi-major axis
6,937.487 km
Eccentricity
0.00072
Inclination
97.7817°
RAAN
118.6879°
Arg. of periapsis
1.7183°
True anomaly
358.40409°
Mean anomaly
358.4064°
Eccentric anomaly
358.40524°
Mean motion
3.75612 °/min
Orbital period
95.84 mins
BSTAR
0.00086881
Loading maneuver chart data...
Computing Atmospheric mass density...
Loading historical data...
Loading historical data...
Loading historical data...
Loading historical data...
Loading historical data...
Loading historical data...
Loading historical data...

Documentation

Showing up to 5 results
|